Content
SEND FEEDBACK

Daily
Averages
Monthly
Summary
United States of America

WOODSBORO, TEXAS


Home > North America > United States > Texas
Elevation: 50 feet     Latitude: 28 14N     Longitude: 097 20W

WEATHER
 
SELECT A DAY
Number of Records: 208,894;   Date Range: 1/2/95 - 8/30/14
 
SHARE

PRINT THIS DATA

[ ← Previous Day ]
WEATHER ALMANAC - JANUARY 31, 2013
[ Next Day → ]
[ °C ]   °F
Weather ElementAverageHighLow
Temperature58 °F66.9 °F (12:53 pm)43 °F (6:53 am)
Dewpoint36.8 °F48.9 °F (11:53 pm)26.1 °F (1:53 pm)
Humidity47.6 %76 % (7:53 am)22 % (1:53 pm)
Barometer30.28 in30.34 in (9:53 am)30.24 in (2:53 am)
Wind Speed6.8 mph11.5 mph (4:53 pm)
Weather ElementAverage
Visibility10 mi
Wind DirectionSSE (147.3 °)

Weather ElementTotal
Precipitation---
Heating Degree Days10.1 (Base 65)
Growing Degree Days5 (Base 50)
Averaged from 22 records on January 31, 2013
WEATHER CONDITIONS BREAKOUT
WIND DIRECTION BREAKOUT
WEATHER BY HOUR - JANUARY 31, 2013
[ °C ]   °F
Local TimeTemperatureDewpointHumidityBarometerVisibilityWind DirectionWind SpeedGust SpeedPrecipitationEventsConditions
1:53 AM54.0 °F34.0 °F47 %30.25 in10.0 miEast (90°)9.2 mphClear
2:53 AM53.1 °F33.1 °F47 %30.24 in10.0 miEast (100°)6.9 mphClear
3:53 AM54.0 °F33.1 °F45 %30.25 in10.0 miESE (120°)8.1 mphClear
4:53 AM48.9 °F30.9 °F50 %30.25 in10.0 miSSE (160°)4.6 mphClear
5:53 AM46.9 °F32.0 °F56 %30.26 in10.0 miSouth (170°)5.8 mphClear
6:53 AM43.0 °F32.0 °F65 %30.27 in10.0 miSW (220°)5.8 mphClear
7:53 AM45.0 °F37.9 °F76 %30.30 in10.0 miWSW (250°)3.5 mphClear
8:53 AM55.0 °F43.0 °F64 %30.32 in10.0 miCalmClear
9:53 AM60.1 °F39.0 °F46 %30.34 in10.0 miWSW (240°)3.5 mphClear
10:53 AM63.0 °F33.1 °F33 %30.34 in10.0 miVariable6.9 mphClear
11:53 AM64.9 °F32.0 °F29 %30.34 in10.0 miSouth (180°)6.9 mphClear
12:53 PM66.9 °F28.0 °F23 %30.31 in10.0 miSouth (170°)8.1 mphClear
1:53 PM66.0 °F26.1 °F22 %30.28 in10.0 miSSE (160°)10.4 mphClear
2:53 PM66.0 °F32.0 °F28 %30.26 in10.0 miSouth (170°)9.2 mphClear
3:53 PM64.0 °F35.1 °F34 %30.25 in10.0 miSSE (160°)9.2 mphClear
4:53 PM64.0 °F39.0 °F40 %30.25 in10.0 miSE (140°)11.5 mphClear
5:53 PM61.0 °F42.1 °F50 %30.25 in10.0 miSSE (150°)8.1 mphClear
6:53 PM60.1 °F44.1 °F55 %30.25 in10.0 miSSE (150°)6.9 mphClear
7:53 PM61.0 °F44.1 °F54 %30.28 in10.0 miSSE (150°)6.9 mphClear
8:53 PM61.0 °F44.1 °F54 %30.29 in10.0 miSSE (150°)6.9 mphClear
9:53 PM60.1 °F46.0 °F60 %30.30 in10.0 miSSE (160°)5.8 mphClear
11:53 PM59.0 °F48.9 °F69 %30.30 in10.0 miSSE (150°)4.6 mphClear
Hourly data recorded from KRKP, located miles away from Woodsboro, Texas







STORIES FROM OUR PARTNERS